User: anonymous   Login
Location: Unspecified
(0.0000°N, 0.0000°E)
Time: 09:46:12
(UTC+01:00)
Language:

Ariane H10 - Orbit

View from above orbital plane
View from above orbital plane
View from above satellite
View from above satellite

Ground track
Ground track

The orbit data is extracted from the following two-line orbital elements,

1 19122U 88040B   16040.04006123  .00000201  00000-0  18798-2 0  9990
2 19122   7.6521  12.4769 7139569 104.5138 338.4476  2.33153402185405
Epoch (UTC): 09 February 2016 00:57:41
Eccentricity: 0.7139569
inclination: 7.6521°
perigee height: 493 km
apogee height: 34797 km
right ascension of ascending node: 12.4769°
argument of perigee: 104.5138°
revolutions per day: 2.33153402
mean anomaly at epoch: 338.4476°
orbit number at epoch: 18540

The dashed part of the orbit path shows where the satellite is in the earth's shadow,  

DLR